Location: Ariel
(45.9570°N, 122.5700°W)
Time: 02:19:48
(UTC-07:00)

Altair - Pass Details

Date: 24 July 2019
Orbit: 1501 x 1683 km, 47.2° (Epoch: 25 August)

Event Time Altitude Azimuth Distance (km) Brightness Sun altitude
Rises 20:23:39 0° 285° (WNW) 4,677 12.4 3.1°
Reaches altitude 10° 20:28:46 10° 262° (W) 3,721 10.6 2.3°
Maximum altitude 20:32:48 14° 236° (SW) 3,465 9.8 1.7°
Drops below altitude 10° 20:36:55 10° 210° (SSW) 3,774 9.6 1.1°
Sets 20:42:14 0° 186° (S) 4,796 9.9 0.2°
